Regional Weather Roundup
Issued by NWS Jackson, KY

Home | Current Version | Previous Version | Graphics & Text | Print | Product List | Glossary On
Versions: 1 2 3 4 5 6 7 8 9 10 11 12 13 14 15 16 17 18 19 20 21 22 23 24 25 26 27 28 29 30 31 32 33 34 35 36 37 38 39 40 41 42 43 44 45 46 47 48 49 50
000
ASUS43 KJKL 282110
RWRJKL

EAST KENTUCKY HOURLY WEATHER ROUNDUP
NATIONAL WEATHER SERVICE JACKSON KY
500 PM EDT THU MAY 28 2015

NOTE: "FAIR" INDICATES FEW OR NO CLOUDS BELOW 12,000 FEET WITH
NO SIGNIFICANT WEATHER AND/OR OBSTRUCTIONS TO VISIBILITY.

* THESE REPORTS ARE NOT UNDER NWS QUALITY CONTROL AND MAY NOT
  REPORT WEATHER SUCH AS PRECIPITATION AND FOG.

KYZ079-080-083-085-087-088-110-112-115-119-120-282200
...EASTERN KENTUCKY...

CITY           SKY/WX    TMP DP  RH WIND       PRES   REMARKS
JACKSON        CLOUDY    78  65  63 NW3       30.21F
LONDON         CLOUDY    75  62  64 CALM      30.20F
SOMERSET*      CLOUDY    72  64  78 NE3       30.20F
MONTICELLO*    PTSUNNY   75  70  85 N10       30.21F
MIDDLESBORO*   CLOUDY    76  67  76 CALM      30.20S
HARLAN APT*    MOCLDY    75  66  73 CALM      30.21F
HAZARD APT*    MOCLDY    79  64  61 CALM      30.20F
BLACK MTN*       N/A     68  64  88 N1          N/A
PIKEVILLE APT* SUNNY     79  66  65 N5        30.21F
BIG SANDY*     MOCLDY    80  65  61 N3        30.20F
MOREHEAD APT*  PTCLDY    79  64  61 CALM      30.22S
$$

KYZ035-036-041-042-044-050-067-078-099-282200
...CENTRAL KENTUCKY...

CITY           SKY/WX    TMP DP  RH WIND       PRES   REMARKS
MT STERLING*   PTSUNNY   75  66  73 SW3       30.21F
FLEMING/MASON* MOSUNNY   79  64  61 CALM      30.20F
DANVILLE*      CLOUDY    75  63  64 CALM      30.21S
RICHMOND*      CLOUDY    75  63  64 CALM      30.19F
LEXINGTON      PTSUNNY   77  65  66 S8        30.19F
FRANKFORT      LGT RAIN  74  68  81 SW7       30.17F
$$

KYZ091>093-OHZ055-061-077-WVZ005-015-034-035-042-282200
...SOUTHERN OHIO/WEST VIRGINIA...

CITY           SKY/WX    TMP DP  RH WIND       PRES   REMARKS
COVINGTON      MOSUNNY   80  63  55 SE7       30.17F
COLUMBUS       MOSUNNY   82  60  47 SE7       30.17F
DAYTON         MOSUNNY   83  60  45 S5        30.18F
WILMINGTON     SUNNY     80  60  50 SE8       30.17F
HUNTINGTON     PTSUNNY   81  64  56 S5        30.18F
CHARLESTON     PTSUNNY   82  61  48 CALM      30.18F
PINEVILLE*     PTSUNNY   79  68  67 MISG      30.26F
BECKLEY        MOSUNNY   77  58  51 VRB3      30.25F
BLUEFIELD      PTSUNNY   79  58  48 CALM      30.27F
$$

VAZ002-007-008-TNZ017-027-036-066-071-282200
...SOUTHWEST VIRGINIA/EAST TENNESSEE...

CITY           SKY/WX    TMP DP  RH WIND       PRES   REMARKS
WISE*          PTSUNNY   75  61  60 N7        30.26F
JONESVILLE*    MOCLDY    75  68  78 SW6       30.22S
ABINGDON*      PTSUNNY   82  57  42 S9G17     30.22R
BRISTOL        PTSUNNY   78  62  57 S13G24    30.19R THUNDER
KNOXVILLE      CLOUDY    80  64  58 E3        30.16F
OAK RIDGE      PTSUNNY   82  61  48 VRB5      30.18F
CROSSVILLE     PTSUNNY   75  63  66 S3        30.21F
NASHVILLE      PTSUNNY   85  64  49 CALM      30.14F
$$

...KEY TO REMARKS...
VSB - VISIBILITY IN MILES
WCI - WIND CHILL INDEX
HX  - HEAT INDEX

$$


USA.gov is the U.S. government's official web portal to all federal, state and local government web resources and services.